Starlink 34296

operational
NORAD ID: 64216 Int'l Des: 2025-117 Owner: SPXS Country: US Constellation: starlink
LEOCIRCULAR

Starlink 34296について

説明を読み込み中...

リアルタイム位置

3D地球を読み込み中...

次回通過

高度履歴

Altitude vs Time

uPlot chart will show altitude changes over time

軌道要素

1 64216U 25117P 25340.39481650 .00085400 00000-0 28581-2 0 9998
2 64216 53.1588 112.8196 0000663 47.4659 312.6398 15.30250024 30275
Epoch: Dec 6, 2025 • Age: 18 hours

現在のステータス

高度 479.1 km
速度 7.63 km/s
衛星直下点 -14.84°S, 170.82°E
打ち上げ日 May 31, 2025
運用期間 0.5 years
タイプ internet

技術仕様

分類 Payload
質量 575.00 kg
乾燥質量 530.00 kg
総質量 575.00 kg
長さ 0.30 m
直径 4.10 m
スパン 29.00 m
形状 Box + pan
製造者 SPXS
バスタイプ Starlink V2MO
フェーズステータス In Orbit
所有者/国 SPXS/US

大規模コンステレーション

Loading constellations...